Retour au catalogue

COSMOS 1275 DEB

ActifPO
NORAD 39943·DEBRIS·🇷🇺 Russia

Lancé Jun 4, 1981 depuis Plesetsk Cosmodrome

Loading…

Prochains Passages (prochaines 24 heures)

TLE

FraisSource: Space-Track

Époque: Sep 14, 2026, 15:53 UTC

1 39943U 81053ND  26257.66225022  .00000774  00000-0  90869-3 0  9995
2 39943  83.0654 139.4264 0145246 143.7125 247.0370 13.62585848608096

Suivez COSMOS 1275 DEB en temps réel avec AllMySat

Download on the App Store